| time (UTC) | temp C | wind direction | speed KPH | gust KPH | rain 1hr cm | rain 24hr cm | rain mn cm | humidity % | barometer mb |
| 20260904163022 | 32 | 213 | 0.0 | 3.2 | 0.00 | 0.00 | 0.00 | 45 | 1018.0 |
| 20260904161606 | 31 | 121 | 0.0 | 3.2 | 0.00 | 0.00 | 0.00 | 48 | 1018.0 |
| 20260904160044 | 31 | 220 | 1.6 | 6.4 | 0.00 | 0.00 | 0.00 | 46 | 1018.2 |
| 20260904154510 | 31 | 215 | 1.6 | 6.4 | 0.00 | 0.00 | 0.00 | 48 | 1018.4 |
| 20260904153019 | 31 | 110 | 0.0 | 4.8 | 0.00 | 0.00 | 0.00 | 47 | 1018.4 |
| 20260904151503 | 31 | 235 | 0.0 | 4.8 | 0.00 | 0.00 | 0.00 | 45 | 1018.5 |
| 20260904150008 | 31 | 240 | 1.6 | 4.8 | 0.00 | 0.00 | 0.00 | 44 | 1018.6 |
| 20260904144524 | 31 | 230 | 4.8 | 9.7 | 0.00 | 0.00 | 0.00 | 46 | 1018.7 |
| 20260904143003 | 31 | 249 | 0.0 | 8.0 | 0.00 | 0.00 | 0.00 | 46 | 1018.9 |
| 20260904141557 | 31 | 208 | 3.2 | 9.7 | 0.00 | 0.00 | 0.00 | 48 | 1018.8 |
| 20260904140042 | 32 | 210 | 0.0 | 4.8 | 0.00 | 0.00 | 0.00 | 48 | 1018.9 |
| 20260904134525 | 31 | 191 | 1.6 | 8.0 | 0.00 | 0.00 | 0.00 | 48 | 1019.1 |
| 20260904133004 | 31 | 231 | 1.6 | 6.4 | 0.00 | 0.00 | 0.00 | 48 | 1019.2 |
| 20260904131541 | 31 | 222 | 3.2 | 6.4 | 0.00 | 0.00 | 0.00 | 48 | 1019.3 |
| 20260904130023 | 30 | 212 | 0.0 | 8.0 | 0.00 | 0.00 | 0.00 | 50 | 1019.4 |
| 20260904124533 | 30 | 132 | 1.6 | 9.7 | 0.00 | 0.00 | 0.00 | 50 | 1019.6 |
| 20260904123040 | 31 | 164 | 0.0 | 4.8 | 0.00 | 0.00 | 0.00 | 49 | 1019.8 |
| 20260904121534 | 30 | 125 | 1.6 | 9.7 | 0.00 | 0.00 | 0.00 | 48 | 1019.9 |
| 20260904120040 | 30 | 244 | 1.6 | 8.0 | 0.00 | 0.00 | 0.00 | 49 | 1019.9 |
| 20260904114503 | 29 | 218 | 3.2 | 12.9 | 0.00 | 0.00 | 0.00 | 51 | 1020.0 |
| 20260904113011 | 30 | 92 | 3.2 | 8.0 | 0.00 | 0.00 | 0.00 | 52 | 1020.1 |
| 20260904111546 | 30 | 188 | 3.2 | 6.4 | 0.00 | 0.00 | 0.00 | 51 | 1020.2 |
| 20260904110006 | 30 | 153 | 0.0 | 3.2 | 0.00 | 0.00 | 0.00 | 49 | 1020.3 |
| 20260904104550 | 28 | 200 | 0.0 | 6.4 | 0.00 | 0.00 | 0.00 | 54 | 1020.6 |
| 20260904103055 | 28 | 275 | 1.6 | 6.4 | 0.00 | 0.00 | 0.00 | 56 | 1020.7 |
| 20260904101515 | 28 | 217 | 3.2 | 4.8 | 0.00 | 0.00 | 0.00 | 54 | 1020.8 |
| 20260904100025 | 28 | 183 | 0.0 | 6.4 | 0.00 | 0.00 | 0.00 | 54 | 1021.1 |
| 20260904094508 | 27 | 131 | 1.6 | 4.8 | 0.00 | 0.00 | 0.00 | 56 | 1021.1 |
| 20260904093051 | 26 | 278 | 3.2 | 6.4 | 0.00 | 0.00 | 0.00 | 55 | 1021.5 |
| 20260904091550 | 26 | 275 | 3.2 | 11.3 | 0.00 | 0.00 | 0.00 | 57 | 1021.6 |
| 20260904090002 | 26 | 280 | 1.6 | 3.2 | 0.00 | 0.00 | 0.00 | 57 | 1021.6 |
| 20260904084502 | 26 | 262 | 0.0 | 4.8 | 0.00 | 0.00 | 0.00 | 58 | 1021.6 |
| 20260904083011 | 25 | 172 | 0.0 | 3.2 | 0.00 | 0.00 | 0.00 | 57 | 1021.5 |
| 20260904081506 | 25 | 123 | 1.6 | 4.8 | 0.00 | 0.00 | 0.00 | 58 | 1021.5 |
| 20260904080105 | 25 | 74 | 0.0 | 4.8 | 0.00 | 0.00 | 0.00 | 59 | 1021.5 |
| 20260904074533 | 24 | 150 | 0.0 | 4.8 | 0.00 | 0.00 | 0.00 | 63 | 1021.5 |
| 20260904073006 | 23 | 106 | 0.0 | 4.8 | 0.00 | 0.00 | 0.00 | 64 | 1021.5 |
| 20260904071525 | 23 | 111 | 0.0 | 9.7 | 0.00 | 0.00 | 0.00 | 67 | 1021.4 |
| 20260904070117 | 23 | 82 | 3.2 | 6.4 | 0.00 | 0.00 | 0.00 | 63 | 1021.3 |
| 20260904064507 | 22 | 292 | 1.6 | 6.4 | 0.00 | 0.00 | 0.00 | 66 | 1021.2 |
| 20260904063027 | 22 | 331 | 0.0 | 6.4 | 0.00 | 0.00 | 0.00 | 71 | 1021.2 |
| 20260904061552 | 21 | 270 | 0.0 | 4.8 | 0.00 | 0.00 | 0.00 | 69 | 1020.9 |
| 20260904060037 | 21 | 330 | 1.6 | 4.8 | 0.00 | 0.00 | 0.00 | 71 | 1021.0 |
| 20260904054601 | 20 | 333 | 1.6 | 9.7 | 0.00 | 0.00 | 0.00 | 74 | 1021.0 |
| 20260904053029 | 19 | 350 | 0.0 | 4.8 | 0.00 | 0.00 | 0.00 | 74 | 1020.9 |
| 20260904051534 | 20 | 292 | 0.0 | 9.7 | 0.00 | 0.00 | 0.00 | 74 | 1020.8 |
| 20260904050040 | 18 | 295 | 1.6 | 8.0 | 0.00 | 0.00 | 0.00 | 78 | 1020.7 |
| 20260904044511 | 19 | 283 | 3.2 | 8.0 | 0.00 | 0.00 | 0.00 | 76 | 1020.5 |
| 20260904043035 | 19 | 293 | 1.6 | 6.4 | 0.00 | 0.00 | 0.00 | 77 | 1020.4 |
| 20260904041521 | 19 | 340 | 1.6 | 12.9 | 0.00 | 0.00 | 0.00 | 76 | 1020.4 |
| 20260904040059 | 20 | 284 | 1.6 | 6.4 | 0.00 | 0.00 | 0.00 | 74 | 1020.4 |
| 20260904034558 | 20 | 285 | 3.2 | 6.4 | 0.00 | 0.00 | 0.00 | 75 | 1020.7 |
| 20260904033056 | 20 | 142 | 0.0 | 11.3 | 0.00 | 0.00 | 0.00 | 76 | 1020.6 |
| 20260904031529 | 20 | 273 | 3.2 | 9.7 | 0.00 | 0.00 | 0.00 | 76 | 1020.5 |
| 20260904030032 | 20 | 294 | 1.6 | 4.8 | 0.00 | 0.00 | 0.00 | 76 | 1020.6 |
| 20260904024522 | 20 | 279 | 0.0 | 6.4 | 0.00 | 0.00 | 0.00 | 76 | 1020.6 |
| 20260904023052 | 19 | 337 | 0.0 | 4.8 | 0.00 | 0.00 | 0.00 | 77 | 1020.5 |
| 20260904021556 | 20 | 278 | 0.0 | 3.2 | 0.00 | 0.00 | 0.00 | 76 | 1020.5 |
| 20260904020034 | 20 | 324 | 0.0 | 4.8 | 0.00 | 0.00 | 0.00 | 74 | 1020.6 |
| 20260904014558 | 20 | 275 | 0.0 | 3.2 | 0.00 | 0.00 | 0.00 | 75 | 1020.4 |
| 20260904013027 | 20 | 36 | 0.0 | 6.4 | 0.00 | 0.00 | 0.00 | 76 | 1020.4 |
| 20260904011533 | 20 | 266 | 1.6 | 9.7 | 0.00 | 0.00 | 0.00 | 76 | 1020.3 |
| 20260904010040 | 21 | 289 | 3.2 | 9.7 | 0.00 | 0.00 | 0.00 | 75 | 1020.5 |
| 20260904004525 | 20 | 274 | 0.0 | 4.8 | 0.00 | 0.00 | 0.00 | 76 | 1020.4 |
| 20260904003100 | 21 | 288 | 0.0 | 6.4 | 0.00 | 0.00 | 0.00 | 74 | 1020.5 |
| 20260904001534 | 22 | 283 | 0.0 | 6.4 | 0.00 | 0.00 | 0.00 | 72 | 1020.6 |
| 20260904000103 | 22 | 348 | 1.6 | 9.7 | 0.00 | 0.00 | 0.00 | 73 | 1020.6 |
| 20260903234547 | 21 | 317 | 0.0 | 8.0 | 0.00 | 0.00 | 0.00 | 77 | 1020.8 |
| 20260903233103 | 20 | 332 | 3.2 | 9.7 | 0.00 | 0.00 | 0.00 | 78 | 1020.8 |
| 20260903231535 | 21 | 284 | 0.0 | 6.4 | 0.00 | 0.00 | 0.00 | 76 | 1020.9 |
| 20260903230107 | 21 | 282 | 3.2 | 4.8 | 0.00 | 0.00 | 0.00 | 76 | 1020.8 |
| 20260903224539 | 21 | 277 | 1.6 | 6.4 | 0.00 | 0.00 | 0.00 | 76 | 1020.7 |
| 20260903223057 | 21 | 283 | 0.0 | 6.4 | 0.00 | 0.00 | 0.00 | 78 | 1020.7 |
| 20260903221543 | 21 | 306 | 0.0 | 6.4 | 0.00 | 0.00 | 0.00 | 80 | 1020.7 |
| 20260903220026 | 20 | 273 | 0.0 | 6.4 | 0.00 | 0.00 | 0.00 | 80 | 1020.6 |
| 20260903214608 | 20 | 319 | 0.0 | 3.2 | 0.00 | 0.00 | 0.00 | 80 | 1020.7 |
| 20260903213054 | 20 | 281 | 0.0 | 3.2 | 0.00 | 0.00 | 0.00 | 81 | 1020.6 |
| 20260903211530 | 21 | 308 | 0.0 | 3.2 | 0.00 | 0.00 | 0.00 | 80 | 1020.5 |
| 20260903210104 | 20 | 50 | 1.6 | 4.8 | 0.00 | 0.00 | 0.00 | 81 | 1020.7 |
| 20260903204601 | 20 | 42 | 0.0 | 3.2 | 0.00 | 0.00 | 0.00 | 81 | 1020.5 |
| 20260903203017 | 20 | 331 | 0.0 | 3.2 | 0.00 | 0.00 | 0.00 | 81 | 1020.4 |
| 20260903201544 | 20 | 332 | 1.6 | 4.8 | 0.00 | 0.00 | 0.00 | 81 | 1020.4 |
| 20260903200015 | 20 | 265 | 0.0 | 3.2 | 0.00 | 0.00 | 0.00 | 80 | 1020.3 |
| 20260903194525 | 21 | 287 | 1.6 | 3.2 | 0.00 | 0.00 | 0.00 | 79 | 1020.3 |
| 20260903193008 | 21 | 309 | 0.0 | 3.2 | 0.00 | 0.00 | 0.00 | 78 | 1020.1 |
| 20260903191516 | 21 | 279 | 0.0 | 1.6 | 0.00 | 0.00 | 0.00 | 77 | 1019.9 |
| 20260903190002 | 22 | 324 | 0.0 | 3.2 | 0.00 | 0.00 | 0.00 | 76 | 1019.8 |
| 20260903184519 | 22 | 306 | 0.0 | 1.6 | 0.00 | 0.00 | 0.00 | 75 | 1019.6 |
| 20260903183006 | 23 | 307 | 0.0 | 3.2 | 0.00 | 0.00 | 0.00 | 74 | 1019.5 |
| 20260903181527 | 23 | 320 | 1.6 | 3.2 | 0.00 | 0.00 | 0.00 | 73 | 1019.3 |
| 20260903180041 | 25 | 241 | 0.0 | 0.0 | 0.00 | 0.00 | 0.00 | 71 | 1019.1 |
| 20260903174545 | 26 | 150 | 0.0 | 0.0 | 0.00 | 0.00 | 0.00 | 68 | 1019.0 |
| 20260903173035 | 27 | 126 | 0.0 | 1.6 | 0.00 | 0.00 | 0.00 | 64 | 1018.8 |
| 20260903171548 | 28 | 126 | 0.0 | 0.0 | 0.00 | 0.00 | 0.00 | 62 | 1018.8 |
| 20260903170024 | 28 | 126 | 0.0 | 0.0 | 0.00 | 0.00 | 0.00 | 56 | 1018.9 |
| 20260903164517 | 29 | 124 | 1.6 | 3.2 | 0.00 | 0.00 | 0.00 | 51 | 1018.8 |